Terminal Aerodrome Forecast
Issued by NWS Twin Cities, MN

Home | Current Version | Previous Version | Graphics & Text | Print | Product List | Glossary On
Versions: 1 2 3 4 5 6 7 8 9 10 11 12 13 14 15 16 17 18 19 20 21 22 23 24 25 26 27 28 29
000
FTUS43 KMPX 171131
TAFMSP
TAF
KMSP 171131Z 1712/1818 04009KT 6SM -RA BR SCT008 BKN017
     FM171400 36012G20KT 6SM -RA BKN008
     FM171600 33015G22KT P6SM VCSH OVC008
     FM172000 30017G25KT P6SM OVC020
     FM172200 31013G20KT P6SM SCT020 BKN040
     FM180200 32007KT P6SM SCT040 SCT150=

USA.gov is the U.S. government's official web portal to all federal, state and local government web resources and services.